Location: Dana
(41.8364°N, 106.7042°W)
Time: 02:40:40
(UTC+00:00)

Transit 4A - Pass Details

Date: 18 May 2026
Orbit: 860 x 980 km, 66.8° (Epoch: 6 June)

Event Time Altitude Azimuth Distance (km) Brightness Sun altitude
Rises 23:16:10 0° 329° (NNW) 3,689 11.4 32.8°
Reaches altitude 10° 23:18:45 10° 328° (NNW) 2,739 10.8 32.3°
Maximum altitude 23:25:11 83° 243° (WSW) 987 8.7 31.1°
Drops below altitude 10° 23:31:31 10° 155° (SSE) 2,692 10.2 29.9°
Sets 23:34:02 0° 155° (SSE) 3,621 10.8 29.4°
